Location: Oberkirch
(48.5323°N, 8.0787°E)
Time: 06:24:45
(UTC+00:00)

AO-85 - Pass Details

Date: 15 March 2026
Orbit: 507 x 686 km, 64.8° (Epoch: 14 April)

Event Time Altitude Azimuth Distance (km) Brightness Sun altitude
Exits shadow 04:06:38 27° 218° (SW) 1,040 ? -16.4°
Maximum altitude 04:08:43 90° 336° (NNW) 530 ? -16.0°
Drops below altitude 10° 04:12:36 10° 39° (NE) 1,744 ? -15.4°
Sets 04:14:45 0° 39° (NE) 2,625 ? -15.1°
